Location: Plainartige
(45.6866°N, 1.7993°E)
Time: 07:07:56
(UTC+00:00)

Lacrosse 4 Rocket - Pass Details

Date: 03 March 2021
Orbit: 537 x 620 km, 68.0° (Epoch: 11 April)

Event Time Altitude Azimuth Distance (km) Brightness Sun altitude
Rises 20:47:57 0° 232° (SW) 2,830 5.2 -32.3°
Reaches altitude 10° 20:50:18 10° 241° (WSW) 1,944 4.4 -32.7°
Enters shadow 20:51:01 14° 246° (WSW) 1,698 4.1 -32.8°
